Content
SEND FEEDBACK

Daily
Averages
Monthly
Summary
French Polynesia

FAAA, FRENCH POLYNESIA


Home > Oceania > French Polynesia
Elevation: 7 feet     Latitude: 17 33S     Longitude: 149 37W

WEATHER
 
SELECT A DAY
Number of Records: 216,052;   Date Range: 6/30/96 - 11/24/14
 
SHARE

PRINT THIS DATA

[ ← Previous Day ]
WEATHER ALMANAC - FEBRUARY 4, 2013
[ Next Day → ]
[ °C ]   °F
Weather ElementAverageHighLow
Temperature80.9 °F86 °F (1:30 pm)77 °F (6:00 am)
Dewpoint74.1 °F77 °F (10:30 am)71.6 °F (2:00 pm)
Humidity79.5 %94 % (9:00 pm)55 % (2:00 pm)
Barometer29.76 in29.83 in (10:30 pm)29.71 in (2:00 am)
Wind Speed5.8 mph18.4 mph (10:00 pm)
Weather ElementAverage
Visibility6.8 mi
Wind DirectionSSE (155.9 °)

Weather ElementTotal
Precipitation---
Cooling Degree Days16.5 (Base 65)
Growing Degree Days31.5 (Base 50)
Averaged from 54 records on February 4, 2013
WEATHER CONDITIONS BREAKOUT
WIND DIRECTION BREAKOUT
WEATHER BY HOUR - FEBRUARY 4, 2013
[ °C ]   °F
Local TimeTemperatureDewpointHumidityBarometerVisibilityWind DirectionWind SpeedGust SpeedPrecipitationEventsConditions
1:30 AM78.8 °F73.4 °F83 %29.74 in6.2 miSouth (170°)3.5 mphMostly Cloudy
2:00 AM79.0 °F74.0 °F79 %29.73 in12.0 miSSE (160°)4.5 mphScattered Clouds
2:00 AM78.8 °F73.4 °F83 %29.71 in6.2 miVariable2.3 mphMostly Cloudy
2:30 AM78.8 °F73.4 °F83 %29.71 in6.2 miCalmMostly Cloudy
3:00 AM78.8 °F73.4 °F83 %29.71 in6.2 miWNW (290°)4.6 mphScattered Clouds
3:30 AM78.8 °F75.2 °F89 %29.71 in6.2 miWest (270°)3.5 mphMostly Cloudy
4:00 AM78.8 °F73.4 °F83 %29.71 in6.2 miNNW (330°)4.6 mphMostly Cloudy
4:30 AM78.8 °F73.4 °F83 %29.71 in6.2 miVariable3.5 mphMostly Cloudy
5:00 AM78.0 °F74.0 °F84 %29.73 in28.0 miESE (120°)4.5 mphClear
5:00 AM78.8 °F73.4 °F83 %29.71 in6.2 miVariable2.3 mphPartly Cloudy
5:30 AM78.8 °F73.4 °F83 %29.71 in6.2 miVariable2.3 mph
6:00 AM77.0 °F73.4 °F89 %29.74 in6.2 miEast (100°)2.3 mphScattered Clouds
6:16 AM77.0 °F73.4 °F89 %29.74 in6.2 miCalmScattered Clouds
6:30 AM78.8 °F73.4 °F83 %29.74 in6.2 miVariable2.3 mphScattered Clouds
7:00 AM80.6 °F73.4 °F79 %29.77 in6.2 miCalmScattered Clouds
7:30 AM82.4 °F73.4 °F74 %29.77 in6.2 miSW (220°)4.6 mphScattered Clouds
8:00 AM83.0 °F74.0 °F68 %29.78 in19.0 miSW (220°)5.8 mphPartly Cloudy
8:00 AM82.4 °F73.4 °F74 %29.77 in6.2 miSW (220°)5.8 mphScattered Clouds
8:30 AM84.2 °F73.4 °F70 %29.77 in6.2 miWSW (240°)3.5 mphScattered Clouds
9:00 AM84.2 °F75.2 °F74 %29.77 in6.2 miWSW (250°)4.6 mphMostly Cloudy
9:30 AM84.2 °F75.2 °F74 %29.80 in6.2 miWSW (250°)5.8 mphRainLight Rain Showers
10:00 AM80.6 °F75.2 °F84 %29.80 in6.2 miSSW (200°)8.1 mphMostly Cloudy
10:30 AM82.4 °F77.0 °F84 %29.77 in6.2 miSSW (200°)10.4 mphMostly Cloudy
11:00 AM83.0 °F75.0 °F70 %29.80 in12.0 miSW (220°)15.7 mphPartly Cloudy
11:00 AM82.4 °F75.2 °F79 %29.77 in6.2 miSW (220°)8.1 mphMostly Cloudy
11:30 AM84.2 °F75.2 °F74 %29.77 in6.2 miWSW (240°)3.5 mphMostly Cloudy
12:00 PM84.2 °F73.4 °F70 %29.77 in6.2 miSSW (210°)8.1 mphMostly Cloudy
12:30 PM84.2 °F73.4 °F70 %29.77 in6.2 miSSW (210°)8.1 mphMostly Cloudy
1:00 PM84.2 °F73.4 °F70 %29.77 in6.2 miSW (220°)5.8 mphMostly Cloudy
1:30 PM86.0 °F75.2 °F70 %29.74 in6.2 miWSW (250°)4.6 mphMostly Cloudy
2:00 PM86.0 °F72.0 °F55 %29.75 in12.0 miNW (320°)1.2 mphPartly Cloudy
2:00 PM86.0 °F71.6 °F62 %29.74 in6.2 miCalmMostly Cloudy
2:30 PM86.0 °F71.6 °F62 %29.74 in6.2 miWSW (250°)3.5 mphMostly Cloudy
3:00 PM86.0 °F73.4 °F66 %29.74 in6.2 miVariable3.5 mphMostly Cloudy
3:04 PM86.0 °F73.4 °F66 %29.74 in6.2 miSW (220°)5.8 mphMostly Cloudy
3:30 PM82.4 °F75.2 °F79 %29.74 in6.2 miSSW (210°)9.2 mphMostly Cloudy
4:00 PM80.6 °F75.2 °F84 %29.74 in6.2 miSSW (210°)9.2 mphMostly Cloudy
4:30 PM82.4 °F73.4 °F74 %29.74 in6.2 miSouth (180°)5.8 mphMostly Cloudy
5:00 PM83.0 °F75.0 °F70 %29.75 in12.0 miSSW (200°)15.7 mphMostly Cloudy
5:00 PM82.4 °F75.2 °F79 %29.74 in6.2 miSSW (200°)8.1 mphMostly Cloudy
5:30 PM82.4 °F75.2 °F79 %29.74 in6.2 miSSW (210°)5.8 mphMostly Cloudy
6:30 PM78.8 °F73.4 °F83 %29.77 in6.2 miVariable2.3 mphMostly Cloudy
7:00 PM78.8 °F75.2 °F89 %29.77 in6.2 miVariable3.5 mphMostly Cloudy
7:30 PM78.8 °F73.4 °F83 %29.77 in6.2 miENE (70°)3.5 mphMostly Cloudy
8:00 PM79.0 °F74.0 °F81 %29.81 in6.0 miENE (70°)2.3 mphRainLight Rain
8:00 PM78.8 °F73.4 °F83 %29.80 in6.2 miVariable2.3 mphMostly Cloudy
8:30 PM78.8 °F75.2 °F89 %29.80 in5.0 miVariable3.5 mphRainLight Rain Showers
9:00 PM77.0 °F75.2 °F94 %29.80 in5.6 miNNE (30°)4.6 mphRainLight Rain Showers
9:30 PM77.0 °F75.2 °F94 %29.80 in5.0 miNNE (30°)8.1 mphRainLight Rain
10:00 PM77.0 °F75.2 °F94 %29.80 in2.5 miNorth (360°)18.4 mphRainLight Rain
10:30 PM77.0 °F75.2 °F94 %29.83 in1.2 miNNW (330°)18.4 mphRainRain
11:00 PM77.0 °F75.0 °F91 %29.83 in3.0 miNorth (350°)12.7 mphRainLight Rain
11:00 PM77.0 °F75.2 °F94 %29.83 in3.1 miNorth (350°)12.7 mphRainLight Rain
11:30 PM77.0 °F73.4 °F89 %29.83 in1.2 miNNE (20°)9.2 mphRainRain
Hourly data recorded from NTAA, located miles away from Faaa, French Polynesia







STORIES FROM OUR PARTNERS